Location: Ash Swamp
(41.5170°N, 74.6157°W)
Time: 02:26:16
(UTC+00:00)

Okean 2 - Pass Details

Date: 14 July 2020
Orbit: 559 x 578 km, 82.5° (Epoch: 14 August)

Event Time Altitude Azimuth Distance (km) Brightness Sun altitude
Rises 08:58:12 0° 343° (NNW) 2,760 7.2 -6.9°
Reaches altitude 10° 09:00:30 10° 334° (NNW) 1,857 6.2 -6.6°
Maximum altitude 09:04:13 35° 269° (W) 917 4.1 -6.0°
Drops below altitude 10° 09:07:55 10° 203° (SSW) 1,841 5.5 -5.5°
Sets 09:10:12 0° 194° (SSW) 2,731 6.4 -5.1°
